www.pogodaiklimat.ru

Архив погоды в Удском (Хабаровский край, Россия)

Время
(UTC), дата
18 5.04
21 5.04
00 6.04
03 6.04
06 6.04
09 6.04
12 6.04
15 6.04
18 6.04
21 6.04
00 7.04
03 7.04
06 7.04
09 7.04
12 7.04
15 7.04
18 7.04
21 7.04
00 8.04
03 8.04
06 8.04
09 8.04
12 8.04
15 8.04
18 8.04
21 8.04
00 9.04
03 9.04
06 9.04
09 9.04
12 9.04
15 9.04
18 9.04
21 9.04
00 10.04
03 10.04
06 10.04
09 10.04
12 10.04
15 10.04
18 10.04
21 10.04
00 11.04
03 11.04
06 11.04
09 11.04
12 11.04
15 11.04
18 11.04
21 11.04
00 12.04
03 12.04
09 12.04
12 12.04
15 12.04
Ветер
(напр.,м/с)
Видим. Явления Облачность Т
(С)
Тd
(С)
f
(%)
Тe
(С)
Тes
(С)
Комфортность P
(гПа)
Po
(гПа)
Тmin
(С)
Tmax
(С)
R
(мм)
R24
(мм)
S
(см)
Ю 1 50 км 10/0
[Cs]
-2.0 -4.5 83 -4 -4 999.8 992.1
СВ 3 50 км слаб. снег 10/0
[As op]
-1.6 -2.7 92 -7 -7 1001.0 993.3 -5.5 39
С 4 10 км слаб. ливневой снег 10/9 600 м
[Cb cap As op]
-1.8 -2.6 94 -8 -8 1000.6 992.9
С 5 10 км слаб. ливневой снег 10/9 600 м
[Cb cap As op]
-0.6 -2.1 90 -7 -7 999.4 991.7
СВ 6 4000 м слаб. ливневой снег 10/9 600 м
[Cb cap As op]
-2.6 -3.3 95 -10 -10 999.4 991.7
СВ 6 2000 м ливневой снег 10/10 600 м
[Cb cap]
-3.6 -4.1 96 -11 -11 1002.1 994.3 -0.4 1
С 5 2000 м ливневой снег 10/10 600 м
[Cb cap]
-3.6 -4.1 96 -11 -11 1007.6 999.7
С 4 2000 м ливневой снег 10/10 600 м
[Cb cap]
-3.6 -4.1 96 -10 -10 1008.6 1000.7
СВ 3 10 км слаб. ливневой снег 10/10 600 м
[Cb cap]
-3.8 -4.6 94 -9 -9 1009.3 1001.4
С 1 50 км {ливн. снег} 5/3 600 м
[Cb cap Ac trans Cc]
-5.6 -6.3 95 -8 -8 1010.0 1002.1 -6.0 2 43
С 3 10 км слаб. ливневой снег 8/3 600 м
[Cb cap Ac trans Cc]
-1.6 -4.0 84 -7 -4 1010.6 1002.8
СВ 4 50 км {ливн. снег} 9/4 600 м
[Cb cap Cc]
+1.1 -4.9 64 -4 0 1010.2 1002.4
В 3 50 км {ливн. снег} 10/5 600 м
[Cb cap Cc]
+2.1 -4.9 60 -2 +1 1010.8 1003.2
В 1 50 км 10/5 600 м
[Cb cap Ac As Cs]
+0.7 -6.2 60 -1 -1 1012.1 1004.3 +2.7 0.0
СВ 1 50 км в посл. час крупа {ливн. снег} 10/10 600 м
[Cb cap]
-1.3 -3.6 84 -3 -3 1014.3 1006.5
штиль 0 50 км 10/4 600 м
[Cb cap Ac As Cs]
-2.8 -3.8 93 -4 -4 1015.0 1007.2
Ю 1 50 км 10/4 600 м
[Cb cap Ac As Cs]
-2.6 -3.9 91 -5 -5 1015.7 1007.9
ЮЗ 1 50 км 10/1 600 м
[Cb cap Ac As Cs]
-3.5 -4.3 94 -6 -6 1015.6 1007.6 -4.0 0.0 40
ЮЗ 1 50 км 10/1 1000 м
[Cu med, cong Cs]
-1.0 -6.4 67 -3 +3 1015.5 1007.7
Ю 1 50 км 10/3 1000 м
[Cu med, cong Cs]
+2.3 -7.2 49 +1 +8 1015.6 1007.9
Ю 1 50 км 9/1 1000 м
[Cu hum Cc]
+3.0 -6.2 51 +2 +8 1015.1 1007.4
Ю 1 50 км 9/0
[Ac lent Cs]
+2.5 -6.9 50 +2 +2 1014.8 1007.1 +3.7
ЮЗ 1 50 км 8/0
[Ac lent Cs]
-1.3 -7.6 62 -3 -3 1016.0 1008.2
штиль 0 50 км 8/0
[Cs]
-6.7 -7.9 91 -8 -8 1016.6 1008.6
ЮЗ 1 50 км 8/0
[Cs]
-5.7 -7.8 85 -8 -8 1017.1 1009.1
З 1 50 км ясно -6.2 -8.5 84 -9 -8 1019.8 1011.8 -7.2 40
З 1 50 км ясно -4.5 -10.6 62 -6 +1 1020.3 1012.3
Ю 1 50 км 3/1 1000 м
[Cu hum Ci fib]
+4.8 -5.5 47 +4 +15 опасность простуды 1018.4 1010.7
ЮЗ 1 50 км 3/1 1000 м
[Cu hum Ci fib]
+7.0 -4.8 43 +7 +13 1017.0 1009.3
Ю 1 50 км ясно +5.0 -11.0 30 +5 +5 1015.9 1008.2 +7.5
ЮЗ 1 50 км ясно +1.2 -10.0 43 0 0 1016.4 1008.6
ЮЗ 1 50 км ясно -1.4 -9.0 56 -3 -3 1015.7 1007.9
штиль 0 50 км ясно -3.6 -8.8 67 -4 -4 1015.1 1007.1
ЮЗ 1 50 км 9/0
[Cc]
-2.9 -7.4 71 -5 -4 1014.7 1006.7 -4.0 40
Ю 3 50 км 8/1 600 м
[Cb cap Ci fib]
+1.1 -5.6 61 -3 +1 1014.0 1006.2
ЮЗ 3 50 км 8/1 600 м
[Cb cap Ac lent Cc]
+7.8 -2.8 47 +6 +11 1011.6 1004.1
З 3 50 км 5/0
[Ac trans Cc]
+10.8 -3.3 37 +9 +14 1009.6 1002.1
З 1 50 км 5/0
[Ac cast Cc]
+9.8 -4.6 36 +10 +10 1008.3 1000.8 +11.6
штиль 0 50 км 5/0
[Ac lent Cc]
-1.6 -3.8 85 -3 -3 1008.9 1001.1
З 1 50 км 10/0
[Ac As]
+1.3 -2.8 74 -0 -0 1009.2 1001.4
З 1 50 км 10/0
[Ac As]
-0.2 -2.6 84 -2 -2 1009.0 1001.2
ЮЗ 1 50 км 10/4 1000 м
[Sc As op Cs]
+0.5 -0.3 94 -2 -2 1008.3 1000.5 -2.0 36
З 1 20 км слаб. дождь {ливн. дождь} 10/5 600 м
[Cb cap As op]
+4.3 +3.8 97 +3 +4 1007.2 999.6
ЮЗ 1 20 км слаб. дождь 10/5 300 м
[Frnb As op]
+4.1 +3.4 95 +3 +4 1007.5 999.9
Ю 1 20 км слаб. дождь 10/5 300 м
[Frnb As op]
+4.1 +3.6 97 +2 +3 1008.1 1000.5
ЮЗ 1 50 км {дождь} 10/3 1000 м
[Sc diur, vesp Ac trans Cc]
+5.0 +2.5 84 +4 +4 1008.2 1000.6 +5.5 3
Ю 1 50 км 3/0
[Ci fib]
+2.1 +0.8 91 0 0 1008.9 1001.3
Ю 1 50 км 3/0
[Ci fib]
+1.3 -0.4 88 -1 -1 1010.0 1002.2
Ю 1 50 км 3/0
[Ci fib]
-1.1 -1.7 96 -3 -3 1010.2 1002.4
штиль 0 50 км ясно -1.8 -2.4 96 -3 -3 1012.0 1004.2 -2.3 34
З 2 50 км 3/0
[Ci fib]
+6.2 -3.0 52 +4 +11 1011.1 1003.5
З 2 50 км 3/0
[Ci fib]
+11.4 -5.1 31 +11 +22 опасность простуды 1009.9 1002.4
штиль 0 50 км 10/0
[Cs]
+9.6 -3.3 40 +10 +10 1006.4 998.9 +14.1
В 1 50 км 10/3 1000 м
[Cb cap Cs]
+6.0 -2.9 53 +5 +5 1007.0 999.4
З 2 50 км 3/0
[Ci fib]
+11.4 -5.1 31 +11 +11 1009.9 1002.4
Местоположение метеостанции Удское (Хабаровский край, Россия): широта 54.50 долгота 134.40 высота над уровнем моря 62 м.
В архиве по умолчанию представлена погода в Удском за последнюю неделю. Архивные данные за месяц целиком и за предыдущие месяцы, начиная с января 2011 года, Вы можете получить, выбрав интересующий диапазон дат из раскрывающегося списка и нажав кнопку "Найти!".
*Определитесь, кто Вы:
Внимание! Время в таблицах - всемирное. Для получения местного времени необходимо прибавить поправку, которая равна 10 ч.
Некоторые строки с данными для отдельных станций могут быть выделены курсивом. Это означает, что фактические данные отсутствуют по различным причинам, а приведенные значения являются расчетными модельными данными для данного пункта наблюдений.
Смотрите также архив погоды в соседних городах и на ближайших метеорологических станциях:
Партнеры нашего сайта:      
Пояснения к столбцам:
  • Ветер - указаны скорость ветра в м/с - средняя за 10 мин, порывы в срок и между сроками (в фигурных скобках) и направление, откуда дует ветер: С - северный,
  • СВ - северо-восточный, В - восточный, ЮВ - юго-восточный, Ю - южный, ЮЗ - юго-западный, З - западный, СЗ - северо-западный.
  • Видимость - горизонтальная дальность видимости в метрах или километрах. При видимости от 1 до 10 км при отсутствии осадков обычно наблюдается дымка, при ухудшении видимости до 1 км и менее - туман. В сухую погоду видимость может ухудшаться дымом, пылью или мглою.
  • Явления - указаны атмосферные явления, наблюдавшиеся в срок или в последний час перед сроком; фигурными скобками обозначены явления, наблюдавшиеся между сроками (за 1-3 часа до срока); квадратными скобками обозначены град или гололедные отложения с указанием их диаметра в мм.
  • Облачность - указаны через наклонную черту общая и нижняя облачность в баллах и высота нижней границы облаков в метрах; квадратными скобками обозначены формы облаков: Ci - перистые, Cs - перисто-слоистые, Cc - перисто-кучевые, Ac - высококучевые, As - высокослоистые, Sc - слоисто-кучевые, Ns - слоисто-дождевые, Cu - кучевые, Cb - кучево-дождевые. Подробнее классификацию облаков см. в Атласе облаков (PDF).
  • T - Температура воздуха - температура, измеренная на высоте 2 м над землей.
  • Td - Температура точки росы - температура, при понижении до которой содержащийся в воздухе водяной пар достигнет насыщения.
  • f - Относительная влажность воздуха - влажноcть воздуха, измеренная на высоте 2 м над землей.
  • Te - Эффективная температура - температура, которую ощущает одетый по сезону человек в тени. Характеристика душности погоды. При расчете учитывается влияние влажности воздуха и скорости ветра на теплоощущения человека.
  • Tes - Эффективная температура на солнце - температура, которую ощущает человек, с поправкой на солнечный нагрев. Характеристика знойности погоды. Зависит от высоты солнца над горизонтом, облачности и скорости ветра. Ночью, в пасмурную погоду, а также при ветре 12 м/с и более поправка равна нулю.
  • P - Атмосферное давление - приведенное к уровню моря атмосферное давление.
  • Po - Атмосферное давление - измеренное на уровне метеостанции атмосферное давление.
  • Tmin - Минимальная температура - минимум температуры воздуха на высоте 2 м над землей.
  • Tmax - Максимальная температура - максимум температуры воздуха на высоте 2 м над землей.
  • R - Количество осадков - Количество выпавших осадков за период времени, мм. При наведении курсора мыши на число - период времени, за который выпало указанное количество осадков.
  • R24 - Количество осадков - Количество выпавших осадков за 24 часа, мм.
  • S - Снежный покров - Высота снежного покрова, см. При наведении курсора мыши на число - состояние снежного покрова и степень покрытия местности в баллах.